"Datum/tijd (MEZT)";"ECMWF_WAM sign golfverwachting";"ECMWF_WAM swell verwachting";"golfhoogte";"deininghoogte"
2024-05-07 07:00;45;3;29;3
2024-05-07 07:10;45;3;30;2
2024-05-07 07:20;45;3;28;2
2024-05-07 07:30;45;3;29;2
2024-05-07 07:40;44;3;29;2
2024-05-07 07:50;44;3;29;2
2024-05-07 08:00;44;4;30;2
2024-05-07 08:10;44;4;29;2
2024-05-07 08:20;44;4;29;2
2024-05-07 08:30;43;4;30;2
2024-05-07 08:40;43;4;29;2
2024-05-07 08:50;43;4;29;2
2024-05-07 09:00;43;4;29;2
2024-05-07 09:10;42;4;29;2
2024-05-07 09:20;42;4;29;2
2024-05-07 09:30;42;4;25;2
2024-05-07 09:40;42;4;31;2
2024-05-07 09:50;41;3;31;3
2024-05-07 10:00;41;3;29;3
2024-05-07 10:10;41;3;29;3
2024-05-07 10:20;41;3;30;3
2024-05-07 10:30;40;3;31;3
2024-05-07 10:40;40;3;31;3
2024-05-07 10:50;40;3;30;3
2024-05-07 11:00;40;3;30;3
2024-05-07 11:10;39;3;30;3
2024-05-07 11:20;39;3;31;3
2024-05-07 11:30;39;3;33;4
2024-05-07 11:40;39;3;36;4
2024-05-07 11:50;39;3;36;4
2024-05-07 12:00;39;3;36;3
2024-05-07 12:10;38;3;37;3
2024-05-07 12:20;38;3;37;3
2024-05-07 12:30;38;3;36;3
2024-05-07 12:40;38;3;36;4
2024-05-07 12:50;38;3;36;4
2024-05-07 13:00;38;3;36;3
2024-05-07 13:10;38;3;34;3
2024-05-07 13:20;37;3;26;4
2024-05-07 13:30;37;3;33;3
2024-05-07 13:40;37;3;33;3
2024-05-07 13:50;37;3;31;4
2024-05-07 14:00;39;4;29;4
2024-05-07 14:10;40;4;30;4
2024-05-07 14:20;40;4;;
2024-05-07 14:30;41;4;32;4
2024-05-07 14:40;41;4;32;4
2024-05-07 14:50;42;4;31;4
2024-05-07 15:00;42;4;30;4
2024-05-07 15:10;43;4;30;4
2024-05-07 15:20;43;4;30;5
2024-05-07 15:30;44;4;27;4
2024-05-07 15:40;44;4;31;5
2024-05-07 15:50;45;4;32;5
2024-05-07 16:00;45;4;28;5
2024-05-07 16:10;46;4;32;5
2024-05-07 16:20;46;4;33;5
2024-05-07 16:30;47;4;33;4
2024-05-07 16:40;47;4;34;5
2024-05-07 16:50;48;4;35;5
2024-05-07 17:00;48;4;35;4
2024-05-07 17:10;49;4;35;4
2024-05-07 17:20;50;4;35;4
2024-05-07 17:30;52;4;36;3
2024-05-07 17:40;53;4;36;3
2024-05-07 17:50;54;4;38;4
2024-05-07 18:00;55;4;39;3
2024-05-07 18:10;56;4;38;3
2024-05-07 18:20;58;4;38;4
2024-05-07 18:30;59;4;39;3
2024-05-07 18:40;60;4;38;3
2024-05-07 18:50;61;4;40;3
2024-05-07 19:00;62;4;44;3
2024-05-07 19:10;64;4;45;3
2024-05-07 19:20;65;4;47;3
2024-05-07 19:30;66;4;50;3
2024-05-07 19:40;67;4;50;3
2024-05-07 19:50;68;4;51;3
2024-05-07 20:00;70;4;53;3
2024-05-07 20:10;70;4;52;3
2024-05-07 20:20;71;4;55;4
2024-05-07 20:30;71;4;58;4
2024-05-07 20:40;72;4;59;4
2024-05-07 20:50;72;4;60;3
2024-05-07 21:00;73;4;61;4
2024-05-07 21:10;73;4;61;4
2024-05-07 21:20;74;4;61;4
2024-05-07 21:30;75;4;62;5
2024-05-07 21:40;75;4;63;4
2024-05-07 21:50;76;4;66;4
2024-05-07 22:00;76;4;66;4
2024-05-07 22:10;77;4;67;4
2024-05-07 22:20;77;4;69;5
2024-05-07 22:30;78;4;69;5
2024-05-07 22:40;78;4;68;5
2024-05-07 22:50;79;4;70;5
2024-05-07 23:00;79;4;69;5
2024-05-07 23:10;79;4;69;5
2024-05-07 23:20;79;4;72;4
2024-05-07 23:30;78;4;70;5
2024-05-07 23:40;78;4;68;5
2024-05-07 23:50;77;4;69;5
2024-05-08 00:00;77;4;70;5
2024-05-08 00:10;77;4;69;5
2024-05-08 00:20;76;4;70;5
2024-05-08 00:30;76;4;71;6
2024-05-08 00:40;75;4;69;5
2024-05-08 00:50;75;4;73;5
2024-05-08 01:00;75;4;77;5
2024-05-08 01:10;74;4;75;6
2024-05-08 01:20;74;5;70;5
2024-05-08 01:30;73;5;73;6
2024-05-08 01:40;73;5;71;6
2024-05-08 01:50;73;5;72;6
2024-05-08 02:00;79;5;74;7
2024-05-08 02:10;79;5;74;7
2024-05-08 02:20;79;5;75;8
2024-05-08 02:30;80;5;73;7
2024-05-08 02:40;80;5;70;8
2024-05-08 02:50;81;5;70;8
2024-05-08 03:00;81;5;70;7
2024-05-08 03:10;82;5;70;8
2024-05-08 03:20;82;4;70;9
2024-05-08 03:30;83;4;70;9
2024-05-08 03:40;83;4;69;8
2024-05-08 03:50;84;4;70;9
2024-05-08 04:00;84;4;71;9
2024-05-08 04:10;85;4;68;8
2024-05-08 04:20;85;4;72;8
2024-05-08 04:30;86;4;77;9
2024-05-08 04:40;86;4;79;9
2024-05-08 04:50;87;4;82;8
2024-05-08 05:00;87;4;82;8
2024-05-08 05:10;87;4;83;8
2024-05-08 05:20;87;4;84;8
2024-05-08 05:30;87;4;82;8
2024-05-08 05:40;87;4;82;8
2024-05-08 05:50;87;4;81;8
2024-05-08 06:00;86;4;84;8
2024-05-08 06:10;86;4;82;6
2024-05-08 06:20;86;4;82;7
2024-05-08 06:30;86;4;85;8
2024-05-08 06:40;86;4;87;7
2024-05-08 06:50;86;4;86;7
2024-05-08 07:00;86;4;86;8
2024-05-08 07:10;86;4;82;8
2024-05-08 07:20;85;4;84;7
2024-05-08 07:30;85;4;86;5
2024-05-08 07:40;85;4;85;5
2024-05-08 07:50;85;4;85;6
2024-05-08 08:00;85;4;84;6
2024-05-08 08:10;85;4;88;6
2024-05-08 08:20;85;4;88;6
2024-05-08 08:30;85;4;85;6
2024-05-08 08:40;85;4;85;6
2024-05-08 08:50;86;4;86;5
2024-05-08 09:00;86;4;87;6
2024-05-08 09:10;86;4;88;6
2024-05-08 09:20;86;4;89;6
2024-05-08 09:30;86;4;94;6
2024-05-08 09:40;86;4;92;5
2024-05-08 09:50;86;3;88;6
2024-05-08 10:00;86;3;91;7
2024-05-08 10:10;87;3;92;7
2024-05-08 10:20;87;3;89;6
2024-05-08 10:30;87;3;93;6
2024-05-08 10:40;87;3;95;7
2024-05-08 10:50;87;3;98;7
2024-05-08 11:00;87;3;103;7
2024-05-08 11:10;87;3;100;6
2024-05-08 11:20;86;3;92;7
2024-05-08 11:30;86;3;93;7
2024-05-08 11:40;85;3;95;7
2024-05-08 11:50;85;3;92;7
2024-05-08 12:00;84;3;91;7
2024-05-08 12:10;83;3;88;7
2024-05-08 12:20;83;3;89;7
2024-05-08 12:30;82;3;91;6
2024-05-08 12:40;82;3;95;7
2024-05-08 12:50;81;3;99;7
2024-05-08 13:00;81;3;87;7
2024-05-08 13:10;80;3;95;8
2024-05-08 13:20;80;3;95;7
2024-05-08 13:30;79;3;96;8
2024-05-08 13:40;79;3;92;8
2024-05-08 13:50;78;3;84;6
2024-05-08 14:00;85;3;83;8
2024-05-08 14:10;85;3;90;9
2024-05-08 14:20;84;3;90;8
2024-05-08 14:30;84;3;89;7
2024-05-08 14:40;84;3;87;9
2024-05-08 14:50;83;3;88;10
2024-05-08 15:00;83;3;88;10
2024-05-08 15:10;83;3;86;10
2024-05-08 15:20;83;3;86;11
2024-05-08 15:30;82;3;82;9
2024-05-08 15:40;82;3;78;10
2024-05-08 15:50;82;3;78;10
2024-05-08 16:00;81;3;73;10
2024-05-08 16:10;81;3;74;10
2024-05-08 16:20;81;3;78;11
2024-05-08 16:30;80;2;79;11
2024-05-08 16:40;80;2;80;10
2024-05-08 16:50;80;2;81;10
2024-05-08 17:00;79;2;85;11
2024-05-08 17:10;79;2;82;11
2024-05-08 17:20;78;2;78;11
2024-05-08 17:30;78;2;78;10
2024-05-08 17:40;77;2;80;9
2024-05-08 17:50;77;2;80;8
2024-05-08 18:00;76;2;76;8
2024-05-08 18:10;76;2;77;8
2024-05-08 18:20;75;2;75;8
2024-05-08 18:30;75;2;75;8
2024-05-08 18:40;74;2;78;8
2024-05-08 18:50;74;2;76;8
2024-05-08 19:00;73;2;73;6
2024-05-08 19:10;73;2;70;5
2024-05-08 19:20;72;2;72;6
2024-05-08 19:30;72;2;73;6
2024-05-08 19:40;72;2;67;6
2024-05-08 19:50;71;2;70;7
2024-05-08 20:00;71;2;71;5
2024-05-08 20:10;70;2;71;5
2024-05-08 20:20;69;2;71;5
2024-05-08 20:30;68;2;69;5
2024-05-08 20:40;68;2;68;5
2024-05-08 20:50;67;2;66;4
2024-05-08 21:00;66;2;63;4
2024-05-08 21:10;66;2;62;4
2024-05-08 21:20;65;2;62;5
2024-05-08 21:30;64;2;62;5
2024-05-08 21:40;64;2;60;4
2024-05-08 21:50;63;2;58;4
2024-05-08 22:00;62;2;57;4
2024-05-08 22:10;62;2;52;4
2024-05-08 22:20;61;2;50;3
2024-05-08 22:30;60;2;54;3
2024-05-08 22:40;60;2;52;3
2024-05-08 22:50;59;2;50;3
2024-05-08 23:00;58;2;49;4
2024-05-08 23:10;58;2;50;3
2024-05-08 23:20;57;2;54;3
2024-05-08 23:30;57;2;55;4
2024-05-08 23:40;56;2;55;4
2024-05-08 23:50;55;2;54;3
2024-05-09 00:00;55;2;51;4
2024-05-09 00:10;54;2;52;4
2024-05-09 00:20;53;2;52;4
2024-05-09 00:30;53;2;50;4
2024-05-09 00:40;52;2;51;4
2024-05-09 00:50;52;2;50;4
2024-05-09 01:00;51;2;49;4
2024-05-09 01:10;50;2;49;4
2024-05-09 01:20;50;2;48;4
2024-05-09 01:30;49;1;50;3
2024-05-09 01:40;49;1;49;3
2024-05-09 01:50;48;1;46;3
2024-05-09 02:00;47;1;46;4
2024-05-09 02:10;47;1;47;4
2024-05-09 02:20;46;1;49;5
2024-05-09 02:30;46;1;;
2024-05-09 02:40;45;1;;
2024-05-09 02:50;45;1;;
2024-05-09 03:00;44;1;;
2024-05-09 03:10;44;1;;
2024-05-09 03:20;44;1;;
2024-05-09 03:30;43;1;;
2024-05-09 03:40;43;1;;
2024-05-09 03:50;42;1;;
2024-05-09 04:00;42;1;;
2024-05-09 04:10;41;1;;
2024-05-09 04:20;41;1;;
2024-05-09 04:30;40;1;;
2024-05-09 04:40;40;1;;
2024-05-09 04:50;39;1;;
2024-05-09 05:00;39;1;;
2024-05-09 05:10;39;1;;
2024-05-09 05:20;38;1;;
2024-05-09 05:30;38;1;;
2024-05-09 05:40;37;1;;
2024-05-09 05:50;37;1;;
2024-05-09 06:00;37;1;;
2024-05-09 06:10;36;1;;
2024-05-09 06:20;36;1;;
2024-05-09 06:30;36;1;;
2024-05-09 06:40;35;1;;
2024-05-09 06:50;35;1;;
2024-05-09 07:00;35;1;;
2024-05-09 07:10;34;1;;
2024-05-09 07:20;34;1;;
2024-05-09 07:30;34;1;;
2024-05-09 07:40;33;1;;
2024-05-09 07:50;33;1;;
2024-05-09 08:00;33;1;;
2024-05-09 08:10;32;1;;
2024-05-09 08:20;32;1;;
2024-05-09 08:30;32;1;;
2024-05-09 08:40;32;1;;
2024-05-09 08:50;31;1;;
2024-05-09 09:00;31;1;;
2024-05-09 09:10;31;1;;
2024-05-09 09:20;31;1;;
2024-05-09 09:30;31;1;;
2024-05-09 09:40;30;1;;
2024-05-09 09:50;30;1;;
2024-05-09 10:00;30;1;;
2024-05-09 10:10;30;1;;
2024-05-09 10:20;29;1;;
2024-05-09 10:30;29;1;;
2024-05-09 10:40;29;1;;
2024-05-09 10:50;29;1;;
2024-05-09 11:00;29;1;;
2024-05-09 11:10;28;1;;
2024-05-09 11:20;28;1;;
2024-05-09 11:30;28;1;;
2024-05-09 11:40;28;1;;
2024-05-09 11:50;28;1;;
2024-05-09 12:00;28;1;;
2024-05-09 12:10;28;1;;
2024-05-09 12:20;28;1;;
2024-05-09 12:30;28;1;;
2024-05-09 12:40;27;1;;
2024-05-09 12:50;27;1;;
2024-05-09 13:00;27;1;;
2024-05-09 13:10;27;1;;
2024-05-09 13:20;27;1;;
2024-05-09 13:30;27;1;;
2024-05-09 13:40;27;1;;
2024-05-09 13:50;27;1;;
2024-05-09 14:00;27;1;;
2024-05-09 14:10;26;1;;
2024-05-09 14:20;26;1;;
2024-05-09 14:30;26;1;;
2024-05-09 14:40;26;1;;
2024-05-09 14:50;26;1;;
2024-05-09 15:00;26;1;;
2024-05-09 15:10;26;1;;
2024-05-09 15:20;26;1;;
2024-05-09 15:30;26;1;;
2024-05-09 15:40;25;1;;
2024-05-09 15:50;25;1;;
2024-05-09 16:00;25;1;;
2024-05-09 16:10;25;1;;
2024-05-09 16:20;25;1;;
2024-05-09 16:30;25;1;;
2024-05-09 16:40;25;1;;
2024-05-09 16:50;25;1;;
2024-05-09 17:00;24;1;;
2024-05-09 17:10;24;1;;
2024-05-09 17:20;24;1;;
2024-05-09 17:30;24;1;;
2024-05-09 17:40;24;1;;
2024-05-09 17:50;24;1;;
2024-05-09 18:00;24;1;;
2024-05-09 18:10;24;1;;
2024-05-09 18:20;24;1;;
2024-05-09 18:30;24;1;;
2024-05-09 18:40;24;1;;
2024-05-09 18:50;24;1;;
2024-05-09 19:00;24;1;;
2024-05-09 19:10;24;1;;
2024-05-09 19:20;23;1;;
2024-05-09 19:30;23;1;;
2024-05-09 19:40;23;1;;
2024-05-09 19:50;23;1;;
2024-05-09 20:00;23;1;;
2024-05-09 20:10;23;1;;
2024-05-09 20:20;23;1;;
2024-05-09 20:30;23;1;;
2024-05-09 20:40;23;1;;
2024-05-09 20:50;23;1;;
2024-05-09 21:00;23;1;;
2024-05-09 21:10;22;1;;
2024-05-09 21:20;22;1;;
2024-05-09 21:30;22;1;;
2024-05-09 21:40;22;1;;
2024-05-09 21:50;22;1;;
2024-05-09 22:00;22;1;;
2024-05-09 22:10;22;1;;
2024-05-09 22:20;22;1;;
2024-05-09 22:30;22;1;;
2024-05-09 22:40;22;1;;
2024-05-09 22:50;21;1;;
2024-05-09 23:00;21;1;;
2024-05-09 23:10;21;1;;
2024-05-09 23:20;21;1;;
2024-05-09 23:30;21;1;;
2024-05-09 23:40;21;1;;
2024-05-09 23:50;21;1;;
2024-05-10 00:00;21;1;;
2024-05-10 00:10;21;1;;
2024-05-10 00:20;20;1;;
2024-05-10 00:30;20;1;;
2024-05-10 00:40;20;1;;
2024-05-10 00:50;20;1;;
2024-05-10 01:00;20;1;;
2024-05-10 01:10;20;1;;
2024-05-10 01:20;20;1;;
2024-05-10 01:30;20;1;;
2024-05-10 01:40;20;1;;
2024-05-10 01:50;19;1;;
2024-05-10 02:00;19;1;;
2024-05-10 02:10;19;1;;
2024-05-10 02:20;19;1;;
2024-05-10 02:30;19;1;;
2024-05-10 02:40;19;1;;
2024-05-10 02:50;19;1;;
2024-05-10 03:00;19;1;;
2024-05-10 03:10;18;1;;
2024-05-10 03:20;18;1;;
2024-05-10 03:30;18;1;;
2024-05-10 03:40;18;1;;
2024-05-10 03:50;18;1;;
2024-05-10 04:00;18;1;;
2024-05-10 04:10;18;1;;
2024-05-10 04:20;18;1;;
2024-05-10 04:30;17;1;;
2024-05-10 04:40;17;1;;
2024-05-10 04:50;17;1;;
2024-05-10 05:00;17;1;;
2024-05-10 05:10;17;1;;
2024-05-10 05:20;17;1;;
2024-05-10 05:30;17;1;;
2024-05-10 05:40;17;1;;
2024-05-10 05:50;17;1;;
2024-05-10 06:00;16;1;;
2024-05-10 06:10;16;1;;
2024-05-10 06:20;16;1;;
2024-05-10 06:30;16;1;;
2024-05-10 06:40;16;1;;
2024-05-10 06:50;16;1;;
2024-05-10 07:00;16;1;;
2024-05-10 07:10;16;1;;
2024-05-10 07:20;16;1;;
2024-05-10 07:30;15;1;;
2024-05-10 07:40;15;1;;
2024-05-10 07:50;15;1;;
2024-05-10 08:00;15;1;;
2024-05-10 08:10;15;1;;
2024-05-10 08:20;15;1;;
2024-05-10 08:30;15;1;;
2024-05-10 08:40;15;1;;
2024-05-10 08:50;15;1;;
2024-05-10 09:00;14;1;;
2024-05-10 09:10;14;1;;
2024-05-10 09:20;14;1;;
2024-05-10 09:30;14;1;;
2024-05-10 09:40;14;1;;
2024-05-10 09:50;14;1;;
2024-05-10 10:00;14;1;;
2024-05-10 10:10;14;1;;
2024-05-10 10:20;14;1;;
2024-05-10 10:30;14;1;;
2024-05-10 10:40;14;1;;
2024-05-10 10:50;13;1;;
2024-05-10 11:00;13;1;;
2024-05-10 11:10;13;1;;
2024-05-10 11:20;13;1;;
2024-05-10 11:30;13;1;;
2024-05-10 11:40;13;1;;
2024-05-10 11:50;13;1;;
2024-05-10 12:00;13;1;;
2024-05-10 12:10;13;1;;
2024-05-10 12:20;13;1;;
2024-05-10 12:30;13;1;;
2024-05-10 12:40;13;1;;
2024-05-10 12:50;13;1;;
2024-05-10 13:00;13;1;;
2024-05-10 13:10;12;1;;
2024-05-10 13:20;12;1;;
2024-05-10 13:30;12;1;;
2024-05-10 13:40;12;1;;
2024-05-10 13:50;12;1;;
2024-05-10 14:00;12;1;;
2024-05-10 14:10;12;1;;
2024-05-10 14:20;12;1;;
2024-05-10 14:30;13;1;;
2024-05-10 14:40;13;1;;
2024-05-10 14:50;13;1;;
2024-05-10 15:00;13;1;;
2024-05-10 15:10;13;1;;
2024-05-10 15:20;13;1;;
2024-05-10 15:30;14;1;;
2024-05-10 15:40;14;1;;
2024-05-10 15:50;14;1;;
2024-05-10 16:00;14;1;;
2024-05-10 16:10;14;1;;
2024-05-10 16:20;14;1;;
2024-05-10 16:30;15;1;;
2024-05-10 16:40;15;1;;
2024-05-10 16:50;15;1;;
2024-05-10 17:00;15;1;;
2024-05-10 17:10;16;1;;
2024-05-10 17:20;16;1;;
2024-05-10 17:30;17;1;;
2024-05-10 17:40;17;1;;
2024-05-10 17:50;18;1;;
2024-05-10 18:00;18;1;;
2024-05-10 18:10;19;1;;
2024-05-10 18:20;19;1;;
2024-05-10 18:30;20;1;;
2024-05-10 18:40;21;1;;
2024-05-10 18:50;21;1;;
2024-05-10 19:00;22;1;;
2024-05-10 19:10;22;1;;
2024-05-10 19:20;23;1;;
2024-05-10 19:30;23;1;;
2024-05-10 19:40;24;1;;
2024-05-10 19:50;24;1;;
2024-05-10 20:00;25;1;;
2024-05-10 20:10;25;1;;
2024-05-10 20:20;26;1;;
2024-05-10 20:30;26;1;;
2024-05-10 20:40;27;1;;
2024-05-10 20:50;27;1;;
2024-05-10 21:00;28;1;;
2024-05-10 21:10;28;1;;
2024-05-10 21:20;28;1;;
2024-05-10 21:30;29;1;;
2024-05-10 21:40;29;1;;
2024-05-10 21:50;30;1;;
2024-05-10 22:00;30;1;;
2024-05-10 22:10;31;1;;
2024-05-10 22:20;31;1;;
2024-05-10 22:30;32;1;;
2024-05-10 22:40;32;1;;
2024-05-10 22:50;32;1;;
2024-05-10 23:00;33;1;;
2024-05-10 23:10;33;1;;
2024-05-10 23:20;33;1;;
2024-05-10 23:30;33;1;;
2024-05-10 23:40;33;1;;
2024-05-10 23:50;33;1;;
2024-05-11 00:00;32;1;;
2024-05-11 00:10;32;1;;
2024-05-11 00:20;32;1;;
2024-05-11 00:30;32;1;;
2024-05-11 00:40;32;1;;
2024-05-11 00:50;32;1;;
2024-05-11 01:00;32;1;;
2024-05-11 01:10;32;1;;
2024-05-11 01:20;32;1;;
2024-05-11 01:30;32;1;;
2024-05-11 01:40;32;1;;
2024-05-11 01:50;32;1;;
2024-05-11 02:00;32;1;;
2024-05-11 02:10;32;1;;
2024-05-11 02:20;32;1;;
2024-05-11 02:30;32;1;;
2024-05-11 02:40;32;1;;
2024-05-11 02:50;32;1;;
2024-05-11 03:00;33;1;;
2024-05-11 03:10;33;1;;
2024-05-11 03:20;33;1;;
2024-05-11 03:30;33;1;;
2024-05-11 03:40;33;1;;
2024-05-11 03:50;33;1;;
2024-05-11 04:00;33;1;;
2024-05-11 04:10;34;1;;
2024-05-11 04:20;34;1;;
2024-05-11 04:30;34;1;;
2024-05-11 04:40;34;1;;
2024-05-11 04:50;34;1;;
2024-05-11 05:00;34;1;;
2024-05-11 05:10;35;1;;
2024-05-11 05:20;35;1;;
2024-05-11 05:30;36;1;;
2024-05-11 05:40;36;1;;
2024-05-11 05:50;36;1;;
2024-05-11 06:00;37;1;;
2024-05-11 06:10;37;1;;
2024-05-11 06:20;38;1;;
2024-05-11 06:30;38;1;;
2024-05-11 06:40;38;1;;
2024-05-11 06:50;39;1;;
2024-05-11 07:00;39;1;;
2024-05-11 07:10;40;1;;
2024-05-11 07:20;40;1;;
2024-05-11 07:30;40;1;;
2024-05-11 07:40;41;1;;
2024-05-11 07:50;41;1;;
2024-05-11 08:00;42;1;;
2024-05-11 08:10;41;1;;
2024-05-11 08:20;41;1;;
2024-05-11 08:30;41;2;;
2024-05-11 08:40;41;2;;
2024-05-11 08:50;41;2;;
2024-05-11 09:00;41;2;;
2024-05-11 09:10;41;2;;
2024-05-11 09:20;41;2;;
2024-05-11 09:30;41;2;;
2024-05-11 09:40;40;2;;
2024-05-11 09:50;40;2;;
2024-05-11 10:00;40;2;;
2024-05-11 10:10;40;2;;
2024-05-11 10:20;40;2;;
2024-05-11 10:30;40;2;;
2024-05-11 10:40;40;2;;
2024-05-11 10:50;40;2;;
2024-05-11 11:00;40;2;;
2024-05-11 11:10;39;2;;
2024-05-11 11:20;39;2;;
2024-05-11 11:30;39;3;;
2024-05-11 11:40;38;3;;
2024-05-11 11:50;38;3;;
2024-05-11 12:00;38;3;;
2024-05-11 12:10;37;3;;
2024-05-11 12:20;37;3;;
2024-05-11 12:30;37;3;;
2024-05-11 12:40;36;3;;
2024-05-11 12:50;36;3;;
2024-05-11 13:00;36;3;;
2024-05-11 13:10;35;3;;
2024-05-11 13:20;35;3;;
2024-05-11 13:30;35;3;;
2024-05-11 13:40;34;3;;
2024-05-11 13:50;34;3;;
2024-05-11 14:00;34;4;;
2024-05-11 14:10;34;4;;
2024-05-11 14:20;34;4;;
2024-05-11 14:30;35;4;;
2024-05-11 14:40;35;4;;
2024-05-11 14:50;35;4;;
2024-05-11 15:00;36;4;;
2024-05-11 15:10;36;4;;
2024-05-11 15:20;36;4;;
2024-05-11 15:30;37;4;;
2024-05-11 15:40;37;4;;
2024-05-11 15:50;37;4;;
2024-05-11 16:00;38;4;;
2024-05-11 16:10;38;4;;
2024-05-11 16:20;38;4;;
2024-05-11 16:30;38;4;;
2024-05-11 16:40;39;5;;
2024-05-11 16:50;39;5;;
2024-05-11 17:00;39;5;;
2024-05-11 17:10;40;5;;
2024-05-11 17:20;40;5;;
2024-05-11 17:30;40;5;;
2024-05-11 17:40;41;5;;
2024-05-11 17:50;41;5;;
2024-05-11 18:00;41;5;;
2024-05-11 18:10;42;5;;
2024-05-11 18:20;42;5;;
2024-05-11 18:30;42;5;;
2024-05-11 18:40;43;5;;
2024-05-11 18:50;43;5;;
2024-05-11 19:00;43;5;;
2024-05-11 19:10;43;5;;
2024-05-11 19:20;44;6;;
2024-05-11 19:30;44;6;;
2024-05-11 19:40;44;6;;
2024-05-11 19:50;45;6;;
2024-05-11 20:00;45;6;;
2024-05-11 20:10;45;6;;
2024-05-11 20:20;45;6;;
2024-05-11 20:30;46;6;;
2024-05-11 20:40;46;6;;
2024-05-11 20:50;46;6;;
2024-05-11 21:00;46;6;;
2024-05-11 21:10;46;6;;
2024-05-11 21:20;47;6;;
2024-05-11 21:30;47;6;;
2024-05-11 21:40;47;6;;
2024-05-11 21:50;47;6;;
2024-05-11 22:00;47;6;;
2024-05-11 22:10;48;6;;
2024-05-11 22:20;48;6;;
2024-05-11 22:30;48;6;;
2024-05-11 22:40;48;6;;
2024-05-11 22:50;49;6;;
2024-05-11 23:00;49;6;;
2024-05-11 23:10;49;6;;
2024-05-11 23:20;49;6;;
2024-05-11 23:30;49;6;;
2024-05-11 23:40;50;6;;
2024-05-11 23:50;50;6;;
2024-05-12 00:00;50;6;;
2024-05-12 00:10;50;6;;
2024-05-12 00:20;50;6;;
2024-05-12 00:30;51;6;;
2024-05-12 00:40;51;6;;
2024-05-12 00:50;51;6;;
2024-05-12 01:00;51;6;;
2024-05-12 01:10;51;6;;
2024-05-12 01:20;52;6;;
2024-05-12 01:30;52;6;;
2024-05-12 01:40;52;6;;
2024-05-12 01:50;52;6;;
2024-05-12 02:00;52;6;;
2024-05-12 02:10;53;6;;
2024-05-12 02:20;53;6;;
2024-05-12 02:30;53;6;;
2024-05-12 02:40;53;6;;
2024-05-12 02:50;54;6;;
2024-05-12 03:00;54;5;;
2024-05-12 03:10;54;5;;
2024-05-12 03:20;55;5;;
2024-05-12 03:30;55;5;;
2024-05-12 03:40;55;5;;
2024-05-12 03:50;55;5;;
2024-05-12 04:00;56;5;;
2024-05-12 04:10;56;5;;
2024-05-12 04:20;56;5;;
2024-05-12 04:30;57;5;;
2024-05-12 04:40;57;5;;
2024-05-12 04:50;57;5;;
2024-05-12 05:00;57;5;;
2024-05-12 05:10;58;5;;
2024-05-12 05:20;58;5;;
2024-05-12 05:30;58;5;;
2024-05-12 05:40;58;5;;
2024-05-12 05:50;59;5;;
2024-05-12 06:00;59;5;;
2024-05-12 06:10;59;5;;
2024-05-12 06:20;60;5;;
2024-05-12 06:30;60;5;;
2024-05-12 06:40;60;5;;
2024-05-12 06:50;60;5;;
2024-05-12 07:00;61;5;;
2024-05-12 07:10;61;5;;
2024-05-12 07:20;61;5;;
2024-05-12 07:30;62;5;;
2024-05-12 07:40;62;5;;
2024-05-12 07:50;62;5;;
2024-05-12 08:00;62;5;;
2024-05-12 08:10;62;5;;
2024-05-12 08:20;61;5;;
2024-05-12 08:30;61;5;;
2024-05-12 08:40;60;5;;
2024-05-12 08:50;60;5;;
2024-05-12 09:00;59;5;;
2024-05-12 09:10;59;5;;
2024-05-12 09:20;58;5;;
2024-05-12 09:30;58;5;;
2024-05-12 09:40;57;5;;
2024-05-12 09:50;57;5;;
2024-05-12 10:00;56;5;;
2024-05-12 10:10;56;5;;
2024-05-12 10:20;55;5;;
2024-05-12 10:30;55;5;;
2024-05-12 10:40;54;5;;
2024-05-12 10:50;54;5;;
2024-05-12 11:00;53;5;;
2024-05-12 11:10;52;5;;
2024-05-12 11:20;52;5;;
2024-05-12 11:30;51;5;;
2024-05-12 11:40;51;5;;
2024-05-12 11:50;50;5;;
2024-05-12 12:00;50;5;;
2024-05-12 12:10;49;5;;
2024-05-12 12:20;49;5;;
2024-05-12 12:30;48;5;;
2024-05-12 12:40;48;5;;
2024-05-12 12:50;47;5;;
2024-05-12 13:00;47;5;;
2024-05-12 13:10;46;5;;
2024-05-12 13:20;46;5;;
2024-05-12 13:30;45;5;;
2024-05-12 13:40;45;5;;
2024-05-12 13:50;44;5;;
2024-05-12 14:00;44;5;;
2024-05-12 14:10;43;5;;
2024-05-12 14:20;43;5;;
2024-05-12 14:30;43;5;;
2024-05-12 14:40;43;5;;
2024-05-12 14:50;42;5;;
2024-05-12 15:00;42;5;;
2024-05-12 15:10;42;5;;
2024-05-12 15:20;41;5;;
2024-05-12 15:30;41;5;;
2024-05-12 15:40;41;5;;
2024-05-12 15:50;41;5;;
2024-05-12 16:00;40;5;;
2024-05-12 16:10;40;5;;
2024-05-12 16:20;40;5;;
2024-05-12 16:30;40;5;;
2024-05-12 16:40;39;5;;
2024-05-12 16:50;39;5;;
2024-05-12 17:00;39;5;;
2024-05-12 17:10;39;5;;
2024-05-12 17:20;38;5;;
2024-05-12 17:30;38;5;;
2024-05-12 17:40;38;5;;
2024-05-12 17:50;37;5;;
2024-05-12 18:00;37;5;;
2024-05-12 18:10;37;5;;
2024-05-12 18:20;37;5;;
2024-05-12 18:30;36;4;;
2024-05-12 18:40;36;4;;
2024-05-12 18:50;36;4;;
2024-05-12 19:00;36;4;;
2024-05-12 19:10;35;4;;
2024-05-12 19:20;35;4;;
2024-05-12 19:30;35;4;;
2024-05-12 19:40;35;4;;
2024-05-12 19:50;34;4;;
2024-05-12 20:00;34;4;;
2024-05-12 20:10;34;4;;
2024-05-12 20:20;35;4;;
2024-05-12 20:30;35;4;;
2024-05-12 20:40;35;4;;
2024-05-12 20:50;35;4;;
2024-05-12 21:00;36;4;;
2024-05-12 21:10;36;4;;
2024-05-12 21:20;36;4;;
2024-05-12 21:30;36;4;;
2024-05-12 21:40;37;4;;
2024-05-12 21:50;37;4;;
2024-05-12 22:00;37;4;;
2024-05-12 22:10;37;4;;
2024-05-12 22:20;38;4;;
2024-05-12 22:30;38;4;;
2024-05-12 22:40;38;4;;
2024-05-12 22:50;38;4;;
2024-05-12 23:00;39;4;;
2024-05-12 23:10;39;4;;
2024-05-12 23:20;39;4;;
2024-05-12 23:30;40;4;;
2024-05-12 23:40;40;4;;
2024-05-12 23:50;40;3;;
2024-05-13 00:00;40;3;;
2024-05-13 00:10;41;3;;
2024-05-13 00:20;41;3;;
2024-05-13 00:30;41;3;;
2024-05-13 00:40;41;3;;
2024-05-13 00:50;42;3;;
2024-05-13 01:00;42;3;;
2024-05-13 01:10;42;3;;
2024-05-13 01:20;42;3;;
2024-05-13 01:30;43;3;;
2024-05-13 01:40;43;3;;
2024-05-13 01:50;43;3;;
2024-05-13 02:00;44;3;;
2024-05-13 02:10;44;3;;
2024-05-13 02:20;44;3;;
2024-05-13 02:30;44;3;;
2024-05-13 02:40;44;3;;
2024-05-13 02:50;44;3;;
2024-05-13 03:00;44;3;;
2024-05-13 03:10;44;3;;
2024-05-13 03:20;44;3;;
2024-05-13 03:30;44;3;;
2024-05-13 03:40;44;3;;
2024-05-13 03:50;44;3;;
2024-05-13 04:00;44;3;;
2024-05-13 04:10;44;3;;
2024-05-13 04:20;44;2;;
2024-05-13 04:30;44;2;;
2024-05-13 04:40;44;2;;
2024-05-13 04:50;44;2;;
2024-05-13 05:00;44;2;;
2024-05-13 05:10;44;2;;
2024-05-13 05:20;44;2;;
2024-05-13 05:30;44;2;;
2024-05-13 05:40;44;2;;
2024-05-13 05:50;44;2;;
2024-05-13 06:00;44;2;;
2024-05-13 06:10;45;2;;
2024-05-13 06:20;45;2;;
2024-05-13 06:30;45;2;;
2024-05-13 06:40;45;2;;
2024-05-13 06:50;45;2;;
2024-05-13 07:00;45;2;;
2024-05-13 07:10;45;2;;
2024-05-13 07:20;45;2;;
2024-05-13 07:30;45;2;;
2024-05-13 07:40;45;2;;
2024-05-13 07:50;45;2;;
2024-05-13 08:00;45;2;;
2024-05-13 08:10;45;2;;
2024-05-13 08:20;44;2;;
2024-05-13 08:30;44;2;;
2024-05-13 08:40;43;2;;
2024-05-13 08:50;43;2;;
2024-05-13 09:00;42;2;;
2024-05-13 09:10;42;2;;
2024-05-13 09:20;42;2;;
2024-05-13 09:30;41;2;;
2024-05-13 09:40;41;1;;
2024-05-13 09:50;40;1;;
2024-05-13 10:00;40;1;;
2024-05-13 10:10;39;1;;
2024-05-13 10:20;39;1;;
2024-05-13 10:30;39;1;;
2024-05-13 10:40;38;1;;
2024-05-13 10:50;38;1;;
2024-05-13 11:00;37;1;;
2024-05-13 11:10;37;1;;
2024-05-13 11:20;37;1;;
2024-05-13 11:30;36;1;;
2024-05-13 11:40;36;1;;
2024-05-13 11:50;35;1;;
2024-05-13 12:00;35;1;;
2024-05-13 12:10;34;1;;
2024-05-13 12:20;34;1;;
2024-05-13 12:30;34;1;;
2024-05-13 12:40;33;1;;
2024-05-13 12:50;33;1;;
2024-05-13 13:00;32;1;;
2024-05-13 13:10;32;1;;
2024-05-13 13:20;32;1;;
2024-05-13 13:30;31;1;;
2024-05-13 13:40;31;1;;
2024-05-13 13:50;30;1;;
2024-05-13 14:00;30;1;;
2024-05-13 14:10;30;1;;
2024-05-13 14:20;30;1;;
2024-05-13 14:30;30;1;;
2024-05-13 14:40;29;1;;
2024-05-13 14:50;29;1;;
2024-05-13 15:00;29;1;;
2024-05-13 15:10;29;1;;
2024-05-13 15:20;29;1;;
2024-05-13 15:30;29;1;;
2024-05-13 15:40;29;1;;
2024-05-13 15:50;29;1;;
2024-05-13 16:00;29;1;;
2024-05-13 16:10;29;1;;
2024-05-13 16:20;28;1;;
2024-05-13 16:30;28;1;;
2024-05-13 16:40;28;1;;